This is the latest recevied weather packets stored in our database for station/object WC4PEM-14. If no packets are shown the sender has not sent any weather packets the latest 1 day(s).
| Time | Temp. | Humidity | Pressure | Rain* | Wind** | Luminosity | Snow |
|---|---|---|---|---|---|---|---|
| 1778018585 | 29.44° C | 50% | 1014 hPa | 0 mm | 2.68 m/s, 100° | - | - |
| 1778018405 | 29.44° C | 50% | 1013.9 hPa | 0 mm | 3.13 m/s, 100° | - | - |
| 1778018285 | 29.44° C | 50% | 1013.9 hPa | 0 mm | 3.13 m/s, 100° | - | - |
| 1778018132 | 30° C | 49% | 1013.9 hPa | 0 mm | 3.13 m/s, 97° | - | - |
| 1778017985 | 30° C | 49% | 1013.9 hPa | 0 mm | 3.13 m/s, 97° | - | - |
| 1778017809 | 30° C | 49% | 1013.9 hPa | 0 mm | 3.58 m/s, 100° | - | - |
| 1778017685 | 30° C | 49% | 1013.9 hPa | 0 mm | 3.58 m/s, 100° | - | - |
| 1778017385 | 30.56° C | 47% | 1013.9 hPa | 0 mm | 3.58 m/s, 102° | - | - |
| 1778017085 | 31.11° C | 48% | 1013.8 hPa | 0 mm | 3.58 m/s, 98° | - | - |
| 1778016890 | 31.67° C | 46% | 1013.7 hPa | 0 mm | 3.58 m/s, 102° | - | - |
| 1778016785 | 31.67° C | 46% | 1013.7 hPa | 0 mm | 3.58 m/s, 102° | - | - |
| 1778016485 | 31.67° C | 46% | 1013.7 hPa | 0 mm | 2.68 m/s, 97° | - | - |
| 1778016329 | 32.22° C | 46% | 1013.8 hPa | 0 mm | 1.34 m/s, 102° | - | - |
| 1778016185 | 32.22° C | 46% | 1013.8 hPa | 0 mm | 1.34 m/s, 102° | - | - |
| 1778016011 | 32.22° C | 43% | 1013.8 hPa | 0 mm | 1.34 m/s, 105° | - | - |
| 1778015885 | 32.22° C | 43% | 1013.8 hPa | 0 mm | 1.34 m/s, 105° | - | - |
| 1778015760 | 31.67° C | 43% | 1013.8 hPa | 0 mm | 2.24 m/s, 107° | - | - |
| 1778015585 | 31.67° C | 43% | 1013.8 hPa | 0 mm | 2.24 m/s, 107° | - | - |
| 1778015432 | 31.67° C | 44% | 1013.9 hPa | 0 mm | 2.24 m/s, 100° | - | - |
| 1778015285 | 31.67° C | 44% | 1013.9 hPa | 0 mm | 2.24 m/s, 100° | - | - |
| 1778015133 | 31.11° C | 45% | 1013.9 hPa | 0 mm | 2.24 m/s, 105° | - | - |
| 1778014985 | 31.11° C | 45% | 1013.9 hPa | 0 mm | 2.24 m/s, 105° | - | - |
| 1778014842 | 31.11° C | 46% | 1013.8 hPa | 0 mm | 2.24 m/s, 96° | - | - |
| 1778014685 | 31.11° C | 46% | 1013.8 hPa | 0 mm | 2.24 m/s, 96° | - | - |
| 1778014519 | 30.56° C | 47% | 1013.7 hPa | 0 mm | 1.79 m/s, 119° | - | - |
* Rain latest hour (hover to see other rain measurements)
** Current wind speed in m/s (hover to see current wind gust speed)